Year,Month,Day,Hour,Minute,Value (Times are PST for temperature in C)
2014,08,10,00,00,14.20
2014,08,10,00,01,14.20
2014,08,10,00,02,14.20
2014,08,10,00,03,14.20
2014,08,10,00,04,14.20
2014,08,10,00,05,14.20
2014,08,10,00,06,14.20
2014,08,10,00,07,14.20
2014,08,10,00,08,14.20
2014,08,10,00,09,14.20
2014,08,10,00,10,14.20
2014,08,10,00,11,14.20
2014,08,10,00,12,14.20
2014,08,10,00,13,14.20
2014,08,10,00,14,14.20
2014,08,10,00,15,14.20
2014,08,10,00,16,14.20
2014,08,10,00,17,14.20
2014,08,10,00,18,14.20
2014,08,10,00,19,14.20
2014,08,10,00,20,14.20
2014,08,10,00,21,14.20
2014,08,10,00,22,14.20
2014,08,10,00,23,14.20
2014,08,10,00,24,14.20
2014,08,10,00,25,14.20
2014,08,10,00,26,14.20
2014,08,10,00,27,14.20
2014,08,10,00,28,14.10
2014,08,10,00,29,14.10
2014,08,10,00,30,14.10
2014,08,10,00,31,14.10
2014,08,10,00,32,14.00
2014,08,10,00,33,14.00
2014,08,10,00,34,14.00
2014,08,10,00,35,14.00
2014,08,10,00,36,14.00
2014,08,10,00,37,14.00
2014,08,10,00,38,14.00
2014,08,10,00,39,14.00
2014,08,10,00,40,13.90
2014,08,10,00,41,13.90
2014,08,10,00,42,13.90
2014,08,10,00,43,13.90
2014,08,10,00,44,13.90
2014,08,10,00,45,13.80
2014,08,10,00,46,13.80
2014,08,10,00,47,13.80
2014,08,10,00,48,13.80
2014,08,10,00,49,13.80
2014,08,10,00,50,13.80
2014,08,10,00,51,13.80
2014,08,10,00,52,13.80
2014,08,10,00,53,13.90
2014,08,10,00,54,13.90
2014,08,10,00,55,13.90
2014,08,10,00,56,13.90
2014,08,10,00,57,13.90
2014,08,10,00,58,13.90
2014,08,10,00,59,13.90
2014,08,10,01,00,13.90
2014,08,10,01,01,13.90
2014,08,10,01,02,13.90
2014,08,10,01,03,13.90
2014,08,10,01,04,13.80
2014,08,10,01,05,13.80
2014,08,10,01,06,13.80
2014,08,10,01,07,13.80
2014,08,10,01,08,13.70
2014,08,10,01,09,13.70
2014,08,10,01,10,13.70
2014,08,10,01,11,13.70
2014,08,10,01,12,13.70
2014,08,10,01,13,13.70
2014,08,10,01,14,13.70
2014,08,10,01,15,13.70
2014,08,10,01,16,13.70
2014,08,10,01,17,13.70
2014,08,10,01,18,13.70
2014,08,10,01,19,13.60
2014,08,10,01,20,13.60
2014,08,10,01,21,13.60
2014,08,10,01,22,13.60
2014,08,10,01,23,13.60
2014,08,10,01,24,13.60
2014,08,10,01,25,13.60
2014,08,10,01,26,13.60
2014,08,10,01,27,13.50
2014,08,10,01,28,13.50
2014,08,10,01,29,13.50
2014,08,10,01,30,13.50
2014,08,10,01,31,13.50
2014,08,10,01,32,13.50
2014,08,10,01,33,13.50
2014,08,10,01,34,13.50
2014,08,10,01,35,13.50
2014,08,10,01,36,13.50
2014,08,10,01,37,13.50
2014,08,10,01,38,13.50
2014,08,10,01,39,13.50
2014,08,10,01,40,13.50
2014,08,10,01,41,13.50
2014,08,10,01,42,13.50
2014,08,10,01,43,13.50
2014,08,10,01,44,13.50
2014,08,10,01,45,13.50
2014,08,10,01,46,13.50
2014,08,10,01,47,13.50
2014,08,10,01,48,13.50
2014,08,10,01,49,13.50
2014,08,10,01,50,13.50
2014,08,10,01,51,13.50
2014,08,10,01,52,13.50
2014,08,10,01,53,13.50
2014,08,10,01,54,13.50
2014,08,10,01,55,13.50
2014,08,10,01,56,13.50
2014,08,10,01,57,13.60
2014,08,10,01,58,13.60
2014,08,10,01,59,13.60
2014,08,10,02,00,13.60
2014,08,10,02,01,13.70
2014,08,10,02,02,13.70
2014,08,10,02,03,13.70
2014,08,10,02,04,13.70
2014,08,10,02,05,13.70
2014,08,10,02,06,13.70
2014,08,10,02,07,13.80
2014,08,10,02,08,13.80
2014,08,10,02,09,13.80
2014,08,10,02,10,13.80
2014,08,10,02,11,13.80
2014,08,10,02,12,13.90
2014,08,10,02,13,13.90
2014,08,10,02,14,13.90
2014,08,10,02,15,13.90
2014,08,10,02,16,13.90
2014,08,10,02,17,13.90
2014,08,10,02,18,13.90
2014,08,10,02,19,13.90
2014,08,10,02,20,13.90
2014,08,10,02,21,13.90
2014,08,10,02,22,13.90
2014,08,10,02,23,14.00
2014,08,10,02,24,14.00
2014,08,10,02,25,14.00
2014,08,10,02,26,14.00
2014,08,10,02,27,14.00
2014,08,10,02,28,13.90
2014,08,10,02,29,13.90
2014,08,10,02,30,13.90
2014,08,10,02,31,13.90
2014,08,10,02,32,13.90
2014,08,10,02,33,13.90
2014,08,10,02,34,13.90
2014,08,10,02,35,13.90
2014,08,10,02,36,13.90
2014,08,10,02,37,13.90
2014,08,10,02,38,13.90
2014,08,10,02,39,13.90
2014,08,10,02,40,13.90
2014,08,10,02,41,13.90
2014,08,10,02,42,13.90
2014,08,10,02,43,13.90
2014,08,10,02,44,13.90
2014,08,10,02,45,13.90
2014,08,10,02,46,13.90
2014,08,10,02,47,13.90
2014,08,10,02,48,13.90
2014,08,10,02,49,13.90
2014,08,10,02,50,13.80
2014,08,10,02,51,13.80
2014,08,10,02,52,13.80
2014,08,10,02,53,13.70
2014,08,10,02,54,13.70
2014,08,10,02,55,13.70
2014,08,10,02,56,13.70
2014,08,10,02,57,13.70
2014,08,10,02,58,13.70
2014,08,10,02,59,13.70
2014,08,10,03,00,13.60
2014,08,10,03,01,13.60
2014,08,10,03,02,13.60
2014,08,10,03,03,13.60
2014,08,10,03,04,13.60
2014,08,10,03,05,13.60
2014,08,10,03,06,13.50
2014,08,10,03,07,13.50
2014,08,10,03,08,13.50
2014,08,10,03,09,13.50
2014,08,10,03,10,13.40
2014,08,10,03,11,13.40
2014,08,10,03,12,13.40
2014,08,10,03,13,13.40
2014,08,10,03,14,13.30
2014,08,10,03,15,13.30
2014,08,10,03,16,13.30
2014,08,10,03,17,13.30
2014,08,10,03,18,13.30
2014,08,10,03,19,13.30
2014,08,10,03,20,13.30
2014,08,10,03,21,13.30
2014,08,10,03,22,13.30
2014,08,10,03,23,13.30
2014,08,10,03,24,13.20
2014,08,10,03,25,13.20
2014,08,10,03,26,13.20
2014,08,10,03,27,13.20
2014,08,10,03,28,13.20
2014,08,10,03,29,13.10
2014,08,10,03,30,13.10
2014,08,10,03,31,13.10
2014,08,10,03,32,13.10
2014,08,10,03,33,13.10
2014,08,10,03,34,13.10
2014,08,10,03,35,13.00
2014,08,10,03,36,13.00
2014,08,10,03,37,13.00
2014,08,10,03,38,13.00
2014,08,10,03,39,13.00
2014,08,10,03,40,13.00
2014,08,10,03,41,13.00
2014,08,10,03,42,13.00
2014,08,10,03,43,13.00
2014,08,10,03,44,13.00
2014,08,10,03,45,13.00
2014,08,10,03,46,13.00
2014,08,10,03,47,13.00
2014,08,10,03,48,12.90
2014,08,10,03,49,12.90
2014,08,10,03,50,12.90
2014,08,10,03,51,12.90
2014,08,10,03,52,12.90
2014,08,10,03,53,12.80
2014,08,10,03,54,12.80
2014,08,10,03,55,12.80
2014,08,10,03,56,12.80
2014,08,10,03,57,12.80
2014,08,10,03,58,12.80
2014,08,10,03,59,12.80
2014,08,10,04,00,12.80
2014,08,10,04,01,12.80
2014,08,10,04,02,12.80
2014,08,10,04,03,12.80
2014,08,10,04,04,12.80
2014,08,10,04,05,12.80
2014,08,10,04,06,12.80
2014,08,10,04,07,12.80
2014,08,10,04,08,12.80
2014,08,10,04,09,12.80
2014,08,10,04,10,12.80
2014,08,10,04,11,12.80
2014,08,10,04,12,12.80
2014,08,10,04,13,12.90
2014,08,10,04,14,12.90
2014,08,10,04,15,12.90
2014,08,10,04,16,12.90
2014,08,10,04,17,12.90
2014,08,10,04,18,12.90
2014,08,10,04,19,12.90
2014,08,10,04,20,12.90
2014,08,10,04,21,12.90
2014,08,10,04,22,12.90
2014,08,10,04,23,12.90
2014,08,10,04,24,12.90
2014,08,10,04,25,12.90
2014,08,10,04,26,12.90
2014,08,10,04,27,12.90
2014,08,10,04,28,12.90
2014,08,10,04,29,12.90
2014,08,10,04,30,12.90
2014,08,10,04,31,12.90
2014,08,10,04,32,12.90
2014,08,10,04,33,12.90
2014,08,10,04,34,12.90
2014,08,10,04,35,12.90
2014,08,10,04,36,12.90
2014,08,10,04,37,12.90
2014,08,10,04,38,12.90
2014,08,10,04,39,12.90
2014,08,10,04,40,13.00
2014,08,10,04,41,13.00
2014,08,10,04,42,12.90
2014,08,10,04,43,12.90
2014,08,10,04,44,12.90
2014,08,10,04,45,12.90
2014,08,10,04,46,12.90
2014,08,10,04,47,12.90
2014,08,10,04,48,12.90
2014,08,10,04,49,12.90
2014,08,10,04,50,12.90
2014,08,10,04,51,12.90
2014,08,10,04,52,12.90
2014,08,10,04,53,12.90
2014,08,10,04,54,12.80
2014,08,10,04,55,12.80
2014,08,10,04,56,12.80
2014,08,10,04,57,12.80
2014,08,10,04,58,12.80
2014,08,10,04,59,12.80
2014,08,10,05,00,12.80
2014,08,10,05,01,12.80
2014,08,10,05,02,12.80
2014,08,10,05,03,12.80
2014,08,10,05,04,12.80
2014,08,10,05,05,12.80
2014,08,10,05,06,12.80
2014,08,10,05,07,12.80
2014,08,10,05,08,12.80
2014,08,10,05,09,12.80
2014,08,10,05,10,12.80
2014,08,10,05,11,12.80
2014,08,10,05,12,12.80
2014,08,10,05,13,12.70
2014,08,10,05,14,12.70
2014,08,10,05,15,12.70
2014,08,10,05,16,12.70
2014,08,10,05,17,12.70
2014,08,10,05,18,12.70
2014,08,10,05,19,12.70
2014,08,10,05,20,12.70
2014,08,10,05,21,12.70
2014,08,10,05,22,12.70
2014,08,10,05,23,12.70
2014,08,10,05,24,12.70
2014,08,10,05,25,12.80
2014,08,10,05,26,12.80
2014,08,10,05,27,12.80
2014,08,10,05,28,12.80
2014,08,10,05,29,12.80
2014,08,10,05,30,12.80
2014,08,10,05,31,12.80
2014,08,10,05,32,12.80
2014,08,10,05,33,12.80
2014,08,10,05,34,12.80
2014,08,10,05,35,12.80
2014,08,10,05,36,12.80
2014,08,10,05,37,12.80
2014,08,10,05,38,12.80
2014,08,10,05,39,12.80
2014,08,10,05,40,12.70
2014,08,10,05,41,12.70
2014,08,10,05,42,12.70
2014,08,10,05,43,12.70
2014,08,10,05,44,12.70
2014,08,10,05,45,12.70
2014,08,10,05,46,12.70
2014,08,10,05,47,12.70
2014,08,10,05,48,12.70
2014,08,10,05,49,12.70
2014,08,10,05,50,12.70
2014,08,10,05,51,12.70
2014,08,10,05,52,12.70
2014,08,10,05,53,12.70
2014,08,10,05,54,12.70
2014,08,10,05,55,12.70
2014,08,10,05,56,12.60
2014,08,10,05,57,12.60
2014,08,10,05,58,12.60
2014,08,10,05,59,12.60
2014,08,10,06,00,12.60
2014,08,10,06,01,12.60
2014,08,10,06,02,12.60
2014,08,10,06,03,12.50
2014,08,10,06,04,12.50
2014,08,10,06,05,12.60
2014,08,10,06,06,12.60
2014,08,10,06,07,12.60
2014,08,10,06,08,12.60
2014,08,10,06,09,12.60
2014,08,10,06,10,12.60
2014,08,10,06,11,12.60
2014,08,10,06,12,12.60
2014,08,10,06,13,12.60
2014,08,10,06,14,12.60
2014,08,10,06,15,12.60
2014,08,10,06,16,12.60
2014,08,10,06,17,12.70
2014,08,10,06,18,12.70
2014,08,10,06,19,12.70
2014,08,10,06,20,12.70
2014,08,10,06,21,12.70
2014,08,10,06,22,12.60
2014,08,10,06,23,12.60
2014,08,10,06,24,12.60
2014,08,10,06,25,12.60
2014,08,10,06,26,12.60
2014,08,10,06,27,12.60
2014,08,10,06,28,12.60
2014,08,10,06,29,12.60
2014,08,10,06,30,12.70
2014,08,10,06,31,12.70
2014,08,10,06,32,12.80
2014,08,10,06,33,12.80
2014,08,10,06,34,12.80
2014,08,10,06,35,12.80
2014,08,10,06,36,12.80
2014,08,10,06,37,12.90
2014,08,10,06,38,12.90
2014,08,10,06,39,13.00
2014,08,10,06,40,13.10
2014,08,10,06,41,13.10
2014,08,10,06,42,13.10
2014,08,10,06,43,13.20
2014,08,10,06,44,13.20
2014,08,10,06,45,13.20
2014,08,10,06,46,13.30
2014,08,10,06,47,13.30
2014,08,10,06,48,13.40
2014,08,10,06,49,13.50
2014,08,10,06,50,13.60
2014,08,10,06,51,13.60
2014,08,10,06,52,13.70
2014,08,10,06,53,13.70
2014,08,10,06,54,13.70
2014,08,10,06,55,13.70
2014,08,10,06,56,13.80
2014,08,10,06,57,13.80
2014,08,10,06,58,13.90
2014,08,10,06,59,13.90
2014,08,10,07,00,14.00
2014,08,10,07,01,14.00
2014,08,10,07,02,14.10
2014,08,10,07,03,14.10
2014,08,10,07,04,14.20
2014,08,10,07,05,14.20
2014,08,10,07,06,14.20
2014,08,10,07,07,14.30
2014,08,10,07,08,14.30
2014,08,10,07,09,14.40
2014,08,10,07,10,14.40
2014,08,10,07,11,14.50
2014,08,10,07,12,14.50
2014,08,10,07,13,14.60
2014,08,10,07,14,14.60
2014,08,10,07,15,14.70
2014,08,10,07,16,14.70
2014,08,10,07,17,14.80
2014,08,10,07,18,14.80
2014,08,10,07,19,14.90
2014,08,10,07,20,15.00
2014,08,10,07,21,15.10
2014,08,10,07,22,15.20
2014,08,10,07,23,15.30
2014,08,10,07,24,15.40
2014,08,10,07,25,15.50
2014,08,10,07,26,15.50
2014,08,10,07,27,15.60
2014,08,10,07,28,15.70
2014,08,10,07,29,15.80
2014,08,10,07,30,15.80
2014,08,10,07,31,16.00
2014,08,10,07,32,16.10
2014,08,10,07,33,16.20
2014,08,10,07,34,16.30
2014,08,10,07,35,16.40
2014,08,10,07,36,16.50
2014,08,10,07,37,16.60
2014,08,10,07,38,16.70
2014,08,10,07,39,16.80
2014,08,10,07,40,16.90
2014,08,10,07,41,17.00
2014,08,10,07,42,17.10
2014,08,10,07,43,17.20
2014,08,10,07,44,17.30
2014,08,10,07,45,17.30
2014,08,10,07,46,17.40
2014,08,10,07,47,17.40
2014,08,10,07,48,17.50
2014,08,10,07,49,17.60
2014,08,10,07,50,17.70
2014,08,10,07,51,17.90
2014,08,10,07,52,18.00
2014,08,10,07,53,18.10
2014,08,10,07,54,18.20
2014,08,10,07,55,18.30
2014,08,10,07,56,18.40
2014,08,10,07,57,18.40
2014,08,10,07,58,18.50
2014,08,10,07,59,18.60
2014,08,10,08,00,18.60
2014,08,10,08,01,18.60
2014,08,10,08,02,18.60
2014,08,10,08,03,18.60
2014,08,10,08,04,18.60
2014,08,10,08,05,18.60
2014,08,10,08,06,18.60
2014,08,10,08,07,18.60
2014,08,10,08,08,18.60
2014,08,10,08,09,18.60
2014,08,10,08,10,18.70
2014,08,10,08,11,18.70
2014,08,10,08,12,18.80
2014,08,10,08,13,18.90
2014,08,10,08,14,19.00
2014,08,10,08,15,19.10
2014,08,10,08,16,19.20
2014,08,10,08,17,19.30
2014,08,10,08,18,19.30
2014,08,10,08,19,19.40
2014,08,10,08,20,19.40
2014,08,10,08,21,19.40
2014,08,10,08,22,19.50
2014,08,10,08,23,19.60
2014,08,10,08,24,19.70
2014,08,10,08,25,19.80
2014,08,10,08,26,19.90
2014,08,10,08,27,20.00
2014,08,10,08,28,20.10
2014,08,10,08,29,20.10
2014,08,10,08,30,20.20
2014,08,10,08,31,20.20
2014,08,10,08,32,20.30
2014,08,10,08,33,20.40
2014,08,10,08,34,20.50
2014,08,10,08,35,20.60
2014,08,10,08,36,20.70
2014,08,10,08,37,20.80
2014,08,10,08,38,20.90
2014,08,10,08,39,21.00
2014,08,10,08,40,21.10
2014,08,10,08,41,21.20
2014,08,10,08,42,21.30
2014,08,10,08,43,21.30
2014,08,10,08,44,21.40
2014,08,10,08,45,21.50
2014,08,10,08,46,21.60
2014,08,10,08,47,21.70
2014,08,10,08,48,21.70
2014,08,10,08,49,21.80
2014,08,10,08,50,21.90
2014,08,10,08,51,21.90
2014,08,10,08,52,21.90
2014,08,10,08,53,21.90
2014,08,10,08,54,21.90
2014,08,10,08,55,21.90
2014,08,10,08,56,22.00
2014,08,10,08,57,21.90
2014,08,10,08,58,21.90
2014,08,10,08,59,21.90
2014,08,10,09,00,21.80
2014,08,10,09,01,21.80
2014,08,10,09,02,21.70
2014,08,10,09,03,21.70
2014,08,10,09,04,21.70
2014,08,10,09,05,21.70
2014,08,10,09,06,21.70
2014,08,10,09,07,21.70
2014,08,10,09,08,21.60
2014,08,10,09,09,21.60
2014,08,10,09,10,21.60
2014,08,10,09,11,21.60
2014,08,10,09,12,21.60
2014,08,10,09,13,21.60
2014,08,10,09,14,21.60
2014,08,10,09,15,21.70
2014,08,10,09,16,21.80
2014,08,10,09,17,21.90
2014,08,10,09,18,22.00
2014,08,10,09,19,22.00
2014,08,10,09,20,22.00
2014,08,10,09,21,22.00
2014,08,10,09,22,22.00
2014,08,10,09,23,22.00
2014,08,10,09,24,22.00
2014,08,10,09,25,22.00
2014,08,10,09,26,22.00
2014,08,10,09,27,22.00
2014,08,10,09,28,22.10
2014,08,10,09,29,22.10
2014,08,10,09,30,22.10
2014,08,10,09,31,22.20
2014,08,10,09,32,22.10
2014,08,10,09,33,22.10
2014,08,10,09,34,22.10
2014,08,10,09,35,22.20
2014,08,10,09,36,22.20
2014,08,10,09,37,22.20
2014,08,10,09,38,22.20
2014,08,10,09,39,22.10
2014,08,10,09,40,22.20
2014,08,10,09,41,22.20
2014,08,10,09,42,22.30
2014,08,10,09,43,22.30
2014,08,10,09,44,22.30
2014,08,10,09,45,22.20
2014,08,10,09,46,22.20
2014,08,10,09,47,22.20
2014,08,10,09,48,22.30
2014,08,10,09,49,22.30
2014,08,10,09,50,22.30
2014,08,10,09,51,22.40
2014,08,10,09,52,22.40
2014,08,10,09,53,22.50
2014,08,10,09,54,22.50
2014,08,10,09,55,22.40
2014,08,10,09,56,22.30
2014,08,10,09,57,22.20
2014,08,10,09,58,22.20
2014,08,10,09,59,22.20
2014,08,10,10,00,22.30
2014,08,10,10,01,22.30
2014,08,10,10,02,22.40
2014,08,10,10,03,22.40
2014,08,10,10,04,22.50
2014,08,10,10,05,22.50
2014,08,10,10,06,22.60
2014,08,10,10,07,22.70
2014,08,10,10,08,22.80
2014,08,10,10,09,22.90
2014,08,10,10,10,22.90
2014,08,10,10,11,22.90
2014,08,10,10,12,22.90
2014,08,10,10,13,22.90
2014,08,10,10,14,22.90
2014,08,10,10,15,22.80
2014,08,10,10,16,22.80
2014,08,10,10,17,22.80
2014,08,10,10,18,22.80
2014,08,10,10,19,22.80
2014,08,10,10,20,22.80
2014,08,10,10,21,22.80
2014,08,10,10,22,22.70
2014,08,10,10,23,22.60
2014,08,10,10,24,22.60
2014,08,10,10,25,22.60
2014,08,10,10,26,22.60
2014,08,10,10,27,22.50
2014,08,10,10,28,22.50
2014,08,10,10,29,22.60
2014,08,10,10,30,22.60
2014,08,10,10,31,22.70
2014,08,10,10,32,22.70
2014,08,10,10,33,22.70
2014,08,10,10,34,22.70
2014,08,10,10,35,22.60
2014,08,10,10,36,22.60
2014,08,10,10,37,22.60
2014,08,10,10,38,22.70
2014,08,10,10,39,22.60
2014,08,10,10,40,22.60
2014,08,10,10,41,22.70
2014,08,10,10,42,22.70
2014,08,10,10,43,22.80
2014,08,10,10,44,22.80
2014,08,10,10,45,22.90
2014,08,10,10,46,23.00
2014,08,10,10,47,23.20
2014,08,10,10,48,23.30
2014,08,10,10,49,23.30
2014,08,10,10,50,23.40
2014,08,10,10,51,23.50
2014,08,10,10,52,23.70
2014,08,10,10,53,23.70
2014,08,10,10,54,23.80
2014,08,10,10,55,23.80
2014,08,10,10,56,23.80
2014,08,10,10,57,23.80
2014,08,10,10,58,23.70
2014,08,10,10,59,23.70
2014,08,10,11,00,23.80
2014,08,10,11,01,23.70
2014,08,10,11,02,23.70
2014,08,10,11,03,23.70
2014,08,10,11,04,23.70
2014,08,10,11,05,23.70
2014,08,10,11,06,23.70
2014,08,10,11,07,23.80
2014,08,10,11,08,23.80
2014,08,10,11,09,23.90
2014,08,10,11,10,24.00
2014,08,10,11,11,24.10
2014,08,10,11,12,24.10
2014,08,10,11,13,24.10
2014,08,10,11,14,24.10
2014,08,10,11,15,24.20
2014,08,10,11,16,24.20
2014,08,10,11,17,24.20
2014,08,10,11,18,24.10
2014,08,10,11,19,24.10
2014,08,10,11,20,24.10
2014,08,10,11,21,24.20
2014,08,10,11,22,24.20
2014,08,10,11,23,24.20
2014,08,10,11,24,24.30
2014,08,10,11,25,24.30
2014,08,10,11,26,24.30
2014,08,10,11,27,24.30
2014,08,10,11,28,24.30
2014,08,10,11,29,24.30
2014,08,10,11,30,24.20
2014,08,10,11,31,24.30
2014,08,10,11,32,24.30
2014,08,10,11,33,24.40
2014,08,10,11,34,24.40
2014,08,10,11,35,24.40
2014,08,10,11,36,24.40
2014,08,10,11,37,24.40
2014,08,10,11,38,24.40
2014,08,10,11,39,24.40
2014,08,10,11,40,24.30
2014,08,10,11,41,24.30
2014,08,10,11,42,24.20
2014,08,10,11,43,24.20
2014,08,10,11,44,24.10
2014,08,10,11,45,24.10
2014,08,10,11,46,24.10
2014,08,10,11,47,24.00
2014,08,10,11,48,23.90
2014,08,10,11,49,24.00
2014,08,10,11,50,24.10
2014,08,10,11,51,24.10
2014,08,10,11,52,24.10
2014,08,10,11,53,24.20
2014,08,10,11,54,24.30
2014,08,10,11,55,24.30
2014,08,10,11,56,24.30
2014,08,10,11,57,24.40
2014,08,10,11,58,24.40
2014,08,10,11,59,24.40
2014,08,10,12,00,24.40
2014,08,10,12,01,24.40
2014,08,10,12,02,24.40
2014,08,10,12,03,24.40
2014,08,10,12,04,24.50
2014,08,10,12,05,24.50
2014,08,10,12,06,24.50
2014,08,10,12,07,24.60
2014,08,10,12,08,24.60
2014,08,10,12,09,24.60
2014,08,10,12,10,24.60
2014,08,10,12,11,24.60
2014,08,10,12,12,24.60
2014,08,10,12,13,24.50
2014,08,10,12,14,24.50
2014,08,10,12,15,24.50
2014,08,10,12,16,24.40
2014,08,10,12,17,24.30
2014,08,10,12,18,24.20
2014,08,10,12,19,24.10
2014,08,10,12,20,24.10
2014,08,10,12,21,24.20
2014,08,10,12,22,24.20
2014,08,10,12,23,24.20
2014,08,10,12,24,24.20
2014,08,10,12,25,24.30
2014,08,10,12,26,24.30
2014,08,10,12,27,24.20
2014,08,10,12,28,24.10
2014,08,10,12,29,24.00
2014,08,10,12,30,23.90
2014,08,10,12,31,23.70
2014,08,10,12,32,23.50
2014,08,10,12,33,23.30
2014,08,10,12,34,23.30
2014,08,10,12,35,23.30
2014,08,10,12,36,23.40
2014,08,10,12,37,23.50
2014,08,10,12,38,23.60
2014,08,10,12,39,23.70
2014,08,10,12,40,23.70
2014,08,10,12,41,23.80
2014,08,10,12,42,23.90
2014,08,10,12,43,23.90
2014,08,10,12,44,23.90
2014,08,10,12,45,23.90
2014,08,10,12,46,23.90
2014,08,10,12,47,23.90
2014,08,10,12,48,23.90
2014,08,10,12,49,24.00
2014,08,10,12,50,24.10
2014,08,10,12,51,24.00
2014,08,10,12,52,23.90
2014,08,10,12,53,23.80
2014,08,10,12,54,23.70
2014,08,10,12,55,23.70
2014,08,10,12,56,23.70
2014,08,10,12,57,23.70
2014,08,10,12,58,23.90
2014,08,10,12,59,24.00
2014,08,10,13,00,24.20
2014,08,10,13,01,24.30
2014,08,10,13,02,24.40
2014,08,10,13,03,24.50
2014,08,10,13,04,24.50
2014,08,10,13,05,24.50
2014,08,10,13,06,24.50
2014,08,10,13,07,24.60
2014,08,10,13,08,24.60
2014,08,10,13,09,24.60
2014,08,10,13,10,24.60
2014,08,10,13,11,24.60
2014,08,10,13,12,24.70
2014,08,10,13,13,24.70
2014,08,10,13,14,24.90
2014,08,10,13,15,24.90
2014,08,10,13,16,24.90
2014,08,10,13,17,24.90
2014,08,10,13,18,25.00
2014,08,10,13,19,25.10
2014,08,10,13,20,25.10
2014,08,10,13,21,25.10
2014,08,10,13,22,25.20
2014,08,10,13,23,25.30
2014,08,10,13,24,25.50
2014,08,10,13,25,25.70
2014,08,10,13,26,25.80
2014,08,10,13,27,25.90
2014,08,10,13,28,25.90
2014,08,10,13,29,26.00
2014,08,10,13,30,26.00
2014,08,10,13,31,26.00
2014,08,10,13,32,26.00
2014,08,10,13,33,25.90
2014,08,10,13,34,26.00
2014,08,10,13,35,26.00
2014,08,10,13,36,26.10
2014,08,10,13,37,26.10
2014,08,10,13,38,26.20
2014,08,10,13,39,26.30
2014,08,10,13,40,26.30
2014,08,10,13,41,26.30
2014,08,10,13,42,26.30
2014,08,10,13,43,26.30
2014,08,10,13,44,26.30
2014,08,10,13,45,26.30
2014,08,10,13,46,26.30
2014,08,10,13,47,26.30
2014,08,10,13,48,26.30
2014,08,10,13,49,26.30
2014,08,10,13,50,26.30
2014,08,10,13,51,26.40
2014,08,10,13,52,26.40
2014,08,10,13,53,26.50
2014,08,10,13,54,26.60
2014,08,10,13,55,26.70
2014,08,10,13,56,26.70
2014,08,10,13,57,26.70
2014,08,10,13,58,26.80
2014,08,10,13,59,26.80
2014,08,10,14,00,26.90
2014,08,10,14,01,26.90
2014,08,10,14,02,27.00
2014,08,10,14,03,26.90
2014,08,10,14,04,26.50
2014,08,10,14,05,26.20
2014,08,10,14,06,25.90
2014,08,10,14,07,25.80
2014,08,10,14,08,25.60
2014,08,10,14,09,25.40
2014,08,10,14,10,25.30
2014,08,10,14,11,25.30
2014,08,10,14,12,25.10
2014,08,10,14,13,25.10
2014,08,10,14,14,25.00
2014,08,10,14,15,24.90
2014,08,10,14,16,24.90
2014,08,10,14,17,24.80
2014,08,10,14,18,24.70
2014,08,10,14,19,24.50
2014,08,10,14,20,24.30
2014,08,10,14,21,24.10
2014,08,10,14,22,24.10
2014,08,10,14,23,24.10
2014,08,10,14,24,24.20
2014,08,10,14,25,24.30
2014,08,10,14,26,24.50
2014,08,10,14,27,24.60
2014,08,10,14,28,24.80
2014,08,10,14,29,24.90
2014,08,10,14,30,25.00
2014,08,10,14,31,25.00
2014,08,10,14,32,25.10
2014,08,10,14,33,25.10
2014,08,10,14,34,25.10
2014,08,10,14,35,25.20
2014,08,10,14,36,25.20
2014,08,10,14,37,25.30
2014,08,10,14,38,25.20
2014,08,10,14,39,25.20
2014,08,10,14,40,25.20
2014,08,10,14,41,25.10
2014,08,10,14,42,25.10
2014,08,10,14,43,25.10
2014,08,10,14,44,25.10
2014,08,10,14,45,25.00
2014,08,10,14,46,24.90
2014,08,10,14,47,24.90
2014,08,10,14,48,24.90
2014,08,10,14,49,24.80
2014,08,10,14,50,24.70
2014,08,10,14,51,24.70
2014,08,10,14,52,24.70
2014,08,10,14,53,24.70
2014,08,10,14,54,24.70
2014,08,10,14,55,24.70
2014,08,10,14,56,24.70
2014,08,10,14,57,24.70
2014,08,10,14,58,24.60
2014,08,10,14,59,24.60
2014,08,10,15,00,24.60
2014,08,10,15,01,24.60
2014,08,10,15,02,24.60
2014,08,10,15,03,24.60
2014,08,10,15,04,24.70
2014,08,10,15,05,24.80
2014,08,10,15,06,24.80
2014,08,10,15,07,24.90
2014,08,10,15,08,24.90
2014,08,10,15,09,25.00
2014,08,10,15,10,25.00
2014,08,10,15,11,24.90
2014,08,10,15,12,25.00
2014,08,10,15,13,25.00
2014,08,10,15,14,25.00
2014,08,10,15,15,24.90
2014,08,10,15,16,24.90
2014,08,10,15,17,24.90
2014,08,10,15,18,24.90
2014,08,10,15,19,24.90
2014,08,10,15,20,24.90
2014,08,10,15,21,24.80
2014,08,10,15,22,24.90
2014,08,10,15,23,25.00
2014,08,10,15,24,25.00
2014,08,10,15,25,25.00
2014,08,10,15,26,25.10
2014,08,10,15,27,25.10
2014,08,10,15,28,25.10
2014,08,10,15,29,25.10
2014,08,10,15,30,25.00
2014,08,10,15,31,24.90
2014,08,10,15,32,24.80
2014,08,10,15,33,24.80
2014,08,10,15,34,24.70
2014,08,10,15,35,24.70
2014,08,10,15,36,24.70
2014,08,10,15,37,24.70
2014,08,10,15,38,24.70
2014,08,10,15,39,24.80
2014,08,10,15,40,24.90
2014,08,10,15,41,24.90
2014,08,10,15,42,24.80
2014,08,10,15,43,24.70
2014,08,10,15,44,24.70
2014,08,10,15,45,24.70
2014,08,10,15,46,24.70
2014,08,10,15,47,24.70
2014,08,10,15,48,24.80
2014,08,10,15,49,24.90
2014,08,10,15,50,25.00
2014,08,10,15,51,24.90
2014,08,10,15,52,24.90
2014,08,10,15,53,24.90
2014,08,10,15,54,25.00
2014,08,10,15,55,25.00
2014,08,10,15,56,25.00
2014,08,10,15,57,25.00
2014,08,10,15,58,24.90
2014,08,10,15,59,24.90
2014,08,10,16,00,24.90
2014,08,10,16,01,24.80
2014,08,10,16,02,24.80
2014,08,10,16,03,24.80
2014,08,10,16,04,24.80
2014,08,10,16,05,24.80
2014,08,10,16,06,24.90
2014,08,10,16,07,25.00
2014,08,10,16,08,25.10
2014,08,10,16,09,25.20
2014,08,10,16,10,25.30
2014,08,10,16,11,25.30
2014,08,10,16,12,25.40
2014,08,10,16,13,25.40
2014,08,10,16,14,25.50
2014,08,10,16,15,25.50
2014,08,10,16,16,25.60
2014,08,10,16,17,25.80
2014,08,10,16,18,25.90
2014,08,10,16,19,25.90
2014,08,10,16,20,25.80
2014,08,10,16,21,25.70
2014,08,10,16,22,25.60
2014,08,10,16,23,25.60
2014,08,10,16,24,25.60
2014,08,10,16,25,25.60
2014,08,10,16,26,25.70
2014,08,10,16,27,25.80
2014,08,10,16,28,25.80
2014,08,10,16,29,25.80
2014,08,10,16,30,25.80
2014,08,10,16,31,25.80
2014,08,10,16,32,25.80
2014,08,10,16,33,25.60
2014,08,10,16,34,25.40
2014,08,10,16,35,25.40
2014,08,10,16,36,25.30
2014,08,10,16,37,25.20
2014,08,10,16,38,25.10
2014,08,10,16,39,25.10
2014,08,10,16,40,25.10
2014,08,10,16,41,25.20
2014,08,10,16,42,25.20
2014,08,10,16,43,25.20
2014,08,10,16,44,25.20
2014,08,10,16,45,25.20
2014,08,10,16,46,25.30
2014,08,10,16,47,25.30
2014,08,10,16,48,25.30
2014,08,10,16,49,25.30
2014,08,10,16,50,25.10
2014,08,10,16,51,25.00
2014,08,10,16,52,24.80
2014,08,10,16,53,24.70
2014,08,10,16,54,24.60
2014,08,10,16,55,24.60
2014,08,10,16,56,24.60
2014,08,10,16,57,24.50
2014,08,10,16,58,24.50
2014,08,10,16,59,24.50
2014,08,10,17,00,24.60
2014,08,10,17,01,24.60
2014,08,10,17,02,24.70
2014,08,10,17,03,24.90
2014,08,10,17,04,25.00
2014,08,10,17,05,25.10
2014,08,10,17,06,25.20
2014,08,10,17,07,25.30
2014,08,10,17,08,25.40
2014,08,10,17,09,25.40
2014,08,10,17,10,25.50
2014,08,10,17,11,25.50
2014,08,10,17,12,25.50
2014,08,10,17,13,25.50
2014,08,10,17,14,25.50
2014,08,10,17,15,25.50
2014,08,10,17,16,25.40
2014,08,10,17,17,25.40
2014,08,10,17,18,25.30
2014,08,10,17,19,25.20